Time,TemperatureF,DewpointF,PressureIn,WindDirection,WindDirectionDegrees,WindSpeedMPH,WindSpeedGustMPH,Humidity,HourlyPrecipIn,Conditions,Clouds,dailyrainin,SoftwareType,DateUTC
2013-01-30 00:02:00,52.0,50.0,-100.00,SE,135,6.0,6.0,94,-99.99,,,-99.99,,2013-01-30 06:02:00,
2013-01-30 00:11:00,52.0,50.0,-100.00,SSE,155,6.0,9.0,94,-99.99,,,-99.99,,2013-01-30 06:11:00,
2013-01-30 00:21:00,52.0,50.0,-100.00,SSE,155,6.0,9.0,94,-99.99,,,-99.99,,2013-01-30 06:21:00,
2013-01-30 00:42:00,51.0,49.0,-100.00,SE,140,11.0,14.0,94,-99.99,,,-99.99,,2013-01-30 06:42:00,
2013-01-30 00:52:00,51.0,49.0,-100.00,SE,130,14.0,14.0,94,-99.99,,,-99.99,,2013-01-30 06:52:00,
2013-01-30 01:02:00,51.0,49.0,-100.00,SE,130,14.0,14.0,94,-99.99,,,-99.99,,2013-01-30 07:02:00,
2013-01-30 01:11:00,51.0,49.0,-100.00,SE,130,16.0,21.0,94,-99.99,,,-99.99,,2013-01-30 07:11:00,
2013-01-30 01:21:00,51.0,49.0,-100.00,SE,145,14.0,17.0,94,-99.99,,,-99.99,,2013-01-30 07:21:00,
2013-01-30 01:32:00,51.0,49.0,-100.00,SE,145,14.0,17.0,94,-99.99,,,-99.99,,2013-01-30 07:32:00,
2013-01-30 01:42:00,51.0,49.0,-100.00,SSE,160,8.0,10.0,94,-99.99,,,-99.99,,2013-01-30 07:42:00,
2013-01-30 01:52:00,51.0,49.0,-100.00,SE,135,8.0,10.0,94,-99.99,,,-99.99,,2013-01-30 07:52:00,
2013-01-30 02:01:00,51.0,49.0,-100.00,SE,135,8.0,10.0,94,-99.99,,,-99.99,,2013-01-30 08:01:00,
2013-01-30 02:11:00,51.0,49.0,-100.00,SSE,155,8.0,11.0,94,-99.99,,,-99.99,,2013-01-30 08:11:00,
2013-01-30 02:21:00,51.0,49.0,-100.00,SSE,160,11.0,14.0,94,-99.99,,,-99.99,,2013-01-30 08:21:00,
2013-01-30 02:32:00,51.0,49.0,-100.00,SSE,160,11.0,14.0,94,-99.99,,,-99.99,,2013-01-30 08:32:00,
2013-01-30 02:42:00,51.0,49.0,-100.00,SSE,160,11.0,14.0,94,-99.99,,,-99.99,,2013-01-30 08:42:00,
2013-01-30 03:11:00,51.0,49.0,-100.00,SW,215,16.0,17.0,94,-99.99,,,-99.99,,2013-01-30 09:11:00,
2013-01-30 03:21:00,50.0,48.0,-100.00,WSW,250,18.0,21.0,94,-99.99,,,-99.99,,2013-01-30 09:21:00,
2013-01-30 03:32:00,50.0,48.0,-100.00,WSW,250,18.0,21.0,94,-99.99,,,-99.99,,2013-01-30 09:32:00,
2013-01-30 03:42:00,51.0,49.0,-100.00,WSW,255,14.0,16.0,94,-99.99,,,-99.99,,2013-01-30 09:42:00,
2013-01-30 03:52:00,50.0,48.0,-100.00,WSW,245,12.0,14.0,94,-99.99,,,-99.99,,2013-01-30 09:52:00,
2013-01-30 04:01:00,50.0,48.0,-100.00,WSW,250,6.0,8.0,94,-99.99,,,-99.99,,2013-01-30 10:01:00,
2013-01-30 04:11:00,50.0,48.0,-100.00,WSW,250,6.0,8.0,94,-99.99,,,-99.99,,2013-01-30 10:11:00,
2013-01-30 04:21:00,50.0,48.0,-100.00,SE,145,6.0,6.0,94,-99.99,,,-99.99,,2013-01-30 10:21:00,
2013-01-30 04:32:00,50.0,48.0,-100.00,SE,145,6.0,6.0,94,-99.99,,,-99.99,,2013-01-30 10:32:00,
2013-01-30 04:42:00,50.0,48.0,-100.00,SE,145,6.0,6.0,94,-99.99,,,-99.99,,2013-01-30 10:42:00,
2013-01-30 05:11:00,51.0,49.0,-100.00,South,180,9.0,11.0,94,-99.99,,,-99.99,,2013-01-30 11:11:00,
2013-01-30 05:22:00,51.0,49.0,-100.00,South,170,14.0,17.0,94,-99.99,,,-99.99,,2013-01-30 11:22:00,
2013-01-30 05:33:00,51.0,49.0,-100.00,South,170,14.0,17.0,94,-99.99,,,-99.99,,2013-01-30 11:33:00,
2013-01-30 05:42:00,51.0,49.0,-100.00,South,190,14.0,17.0,94,-99.99,,,-99.99,,2013-01-30 11:42:00,
2013-01-30 05:52:00,51.0,49.0,-100.00,South,190,16.0,21.0,94,-99.99,,,-99.99,,2013-01-30 11:52:00,
2013-01-30 06:02:00,51.0,49.0,-100.00,South,190,16.0,21.0,94,-99.99,,,-99.99,,2013-01-30 12:02:00,
2013-01-30 06:12:00,51.0,49.0,-100.00,SSW,200,18.0,23.0,94,-99.99,,,-99.99,,2013-01-30 12:12:00,
2013-01-30 06:22:00,51.0,49.0,-100.00,SSW,195,19.0,23.0,94,-99.99,,,-99.99,,2013-01-30 12:22:00,
2013-01-30 06:33:00,51.0,49.0,-100.00,SSW,195,19.0,23.0,94,-99.99,,,-99.99,,2013-01-30 12:33:00,
2013-01-30 06:42:00,51.0,49.0,-100.00,SSW,200,19.0,25.0,94,-99.99,,,-99.99,,2013-01-30 12:42:00,
2013-01-30 07:12:00,51.0,49.0,-100.00,SSW,200,17.0,21.0,94,-99.99,,,-99.99,,2013-01-30 13:12:00,
2013-01-30 07:23:00,51.0,49.0,-100.00,South,190,21.0,23.0,94,-99.99,,,-99.99,,2013-01-30 13:23:00,
2013-01-30 07:33:00,51.0,49.0,-100.00,South,190,21.0,23.0,94,-99.99,,,-99.99,,2013-01-30 13:33:00,
2013-01-30 07:42:00,51.0,49.0,-100.00,South,185,24.0,27.0,93,-99.99,,,-99.99,,2013-01-30 13:42:00,
2013-01-30 07:53:00,51.0,48.0,-100.00,SSW,195,23.0,25.0,91,-99.99,,,-99.99,,2013-01-30 13:53:00,
2013-01-30 08:02:00,51.0,48.0,-100.00,SSW,195,23.0,25.0,91,-99.99,,,-99.99,,2013-01-30 14:02:00,
2013-01-30 08:12:00,51.0,48.0,-100.00,South,190,23.0,29.0,89,-99.99,,,-99.99,,2013-01-30 14:12:00,
2013-01-30 08:23:00,51.0,47.0,-100.00,SSW,200,29.0,33.0,85,-99.99,,,-99.99,,2013-01-30 14:23:00,
2013-01-30 08:33:00,51.0,47.0,-100.00,SSW,200,29.0,33.0,85,-99.99,,,-99.99,,2013-01-30 14:33:00,
2013-01-30 08:42:00,47.0,44.0,-100.00,WSW,245,27.0,31.0,89,-99.99,,,-99.99,,2013-01-30 14:42:00,
2013-01-30 08:53:00,43.0,39.0,-100.00,West,275,39.0,44.0,85,-99.99,,,-99.99,,2013-01-30 14:53:00,
2013-01-30 09:03:00,43.0,39.0,-100.00,West,275,39.0,44.0,85,-99.99,,,-99.99,,2013-01-30 15:03:00,
2013-01-30 09:12:00,42.0,38.0,-100.00,West,265,34.0,42.0,84,-99.99,,,-99.99,,2013-01-30 15:12:00,
2013-01-30 09:23:00,41.0,37.0,-100.00,West,270,29.0,38.0,84,-99.99,,,-99.99,,2013-01-30 15:23:00,
2013-01-30 09:33:00,41.0,37.0,-100.00,West,270,29.0,38.0,84,-99.99,,,-99.99,,2013-01-30 15:33:00,
2013-01-30 09:43:00,42.0,37.0,-100.00,West,270,27.0,33.0,82,-99.99,,,-99.99,,2013-01-30 15:43:00,
2013-01-30 09:53:00,41.0,37.0,-100.00,West,275,25.0,31.0,84,-99.99,,,-99.99,,2013-01-30 15:53:00,
2013-01-30 10:03:00,41.0,37.0,-100.00,West,275,25.0,31.0,84,-99.99,,,-99.99,,2013-01-30 16:03:00,
2013-01-30 10:12:00,41.0,37.0,-100.00,West,275,25.0,31.0,84,-99.99,,,-99.99,,2013-01-30 16:12:00,
2013-01-30 11:53:00,40.0,33.0,-100.00,West,275,26.0,29.0,77,-99.99,,,-99.99,,2013-01-30 17:53:00,
2013-01-30 12:02:00,40.0,33.0,-100.00,West,275,26.0,29.0,77,-99.99,,,-99.99,,2013-01-30 18:02:00,
2013-01-30 12:12:00,41.0,33.0,-100.00,WSW,250,36.0,47.0,72,-99.99,,,-99.99,,2013-01-30 18:12:00,
2013-01-30 12:23:00,39.0,32.0,-100.00,WNW,285,29.0,37.0,76,-99.99,,,-99.99,,2013-01-30 18:23:00,
2013-01-30 12:33:00,39.0,32.0,-100.00,WNW,285,29.0,37.0,76,-99.99,,,-99.99,,2013-01-30 18:33:00,
2013-01-30 12:42:00,37.0,31.0,-100.00,WNW,290,26.0,33.0,80,-99.99,,,-99.99,,2013-01-30 18:42:00,
2013-01-30 12:53:00,36.0,31.0,-100.00,WNW,290,32.0,39.0,83,-99.99,,,-99.99,,2013-01-30 18:53:00,
2013-01-30 13:03:00,36.0,31.0,-100.00,WNW,290,32.0,39.0,83,-99.99,,,-99.99,,2013-01-30 19:03:00,
2013-01-30 13:12:00,35.0,31.0,-100.00,WNW,285,32.0,39.0,84,-99.99,,,-99.99,,2013-01-30 19:12:00,
2013-01-30 13:22:00,34.0,29.0,-100.00,West,275,36.0,40.0,83,-99.99,,,-99.99,,2013-01-30 19:22:00,
2013-01-30 13:32:00,34.0,29.0,-100.00,West,275,36.0,40.0,83,-99.99,,,-99.99,,2013-01-30 19:32:00,
2013-01-30 13:43:00,34.0,29.0,-100.00,WNW,300,32.0,38.0,83,-99.99,,,-99.99,,2013-01-30 19:43:00,
2013-01-30 13:53:00,33.0,28.0,-100.00,WNW,300,29.0,38.0,82,-99.99,,,-99.99,,2013-01-30 19:53:00,
2013-01-30 14:03:00,33.0,28.0,-100.00,WNW,300,29.0,38.0,82,-99.99,,,-99.99,,2013-01-30 20:03:00,
2013-01-30 14:12:00,33.0,28.0,-100.00,WNW,290,27.0,32.0,81,-99.99,,,-99.99,,2013-01-30 20:12:00,
2013-01-30 14:22:00,32.0,27.0,-100.00,West,280,29.0,32.0,82,-99.99,,,-99.99,,2013-01-30 20:22:00,
2013-01-30 14:33:00,32.0,27.0,-100.00,West,280,29.0,32.0,82,-99.99,,,-99.99,,2013-01-30 20:33:00,
2013-01-30 14:42:00,32.0,27.0,-100.00,West,280,29.0,32.0,82,-99.99,,,-99.99,,2013-01-30 20:42:00,
2013-01-30 14:53:00,32.0,26.0,-100.00,WNW,285,32.0,38.0,78,-99.99,,,-99.99,,2013-01-30 20:53:00,
2013-01-30 15:03:00,32.0,26.0,-100.00,WNW,285,32.0,38.0,78,-99.99,,,-99.99,,2013-01-30 21:03:00,
2013-01-30 15:12:00,32.0,26.0,-100.00,WNW,290,36.0,39.0,77,-99.99,,,-99.99,,2013-01-30 21:12:00,
2013-01-30 15:23:00,31.0,24.0,-100.00,WNW,285,37.0,40.0,75,-99.99,,,-99.99,,2013-01-30 21:23:00,
2013-01-30 15:32:00,31.0,24.0,-100.00,WNW,285,37.0,40.0,75,-99.99,,,-99.99,,2013-01-30 21:32:00,
2013-01-30 15:42:00,30.0,22.0,-100.00,WNW,285,27.0,39.0,73,-99.99,,,-99.99,,2013-01-30 21:42:00,
2013-01-30 15:53:00,30.0,22.0,-100.00,WNW,295,29.0,34.0,73,-99.99,,,-99.99,,2013-01-30 21:53:00,
2013-01-30 16:03:00,30.0,22.0,-100.00,WNW,295,29.0,34.0,73,-99.99,,,-99.99,,2013-01-30 22:03:00,
2013-01-30 16:12:00,30.0,21.0,-100.00,NW,315,32.0,39.0,70,-99.99,,,-99.99,,2013-01-30 22:12:00,
2013-01-30 16:22:00,30.0,21.0,-100.00,WNW,300,31.0,40.0,70,-99.99,,,-99.99,,2013-01-30 22:22:00,
2013-01-30 16:32:00,30.0,21.0,-100.00,WNW,300,31.0,40.0,70,-99.99,,,-99.99,,2013-01-30 22:32:00,
2013-01-30 16:42:00,30.0,21.0,-100.00,WNW,285,29.0,36.0,70,-99.99,,,-99.99,,2013-01-30 22:42:00,
2013-01-30 16:53:00,29.0,20.0,-100.00,NW,310,31.0,37.0,70,-99.99,,,-99.99,,2013-01-30 22:53:00,
2013-01-30 17:02:00,29.0,20.0,-100.00,NW,310,31.0,37.0,70,-99.99,,,-99.99,,2013-01-30 23:02:00,
2013-01-30 17:12:00,29.0,20.0,-100.00,WNW,300,33.0,39.0,69,-99.99,,,-99.99,,2013-01-30 23:12:00,
2013-01-30 17:22:00,28.0,19.0,-100.00,NW,315,31.0,39.0,69,-99.99,,,-99.99,,2013-01-30 23:22:00,
2013-01-30 17:32:00,28.0,19.0,-100.00,NW,315,31.0,39.0,69,-99.99,,,-99.99,,2013-01-30 23:32:00,
2013-01-30 17:42:00,28.0,19.0,-100.00,WNW,300,25.0,34.0,68,-99.99,,,-99.99,,2013-01-30 23:42:00,
2013-01-30 17:52:00,28.0,19.0,-100.00,WNW,300,33.0,44.0,68,-99.99,,,-99.99,,2013-01-30 23:52:00,
2013-01-30 18:02:00,28.0,19.0,-100.00,WNW,300,33.0,44.0,68,-99.99,,,-99.99,,2013-01-31 00:02:00,
2013-01-30 18:11:00,28.0,19.0,-100.00,WNW,300,27.0,36.0,69,-99.99,,,-99.99,,2013-01-31 00:11:00,
2013-01-30 18:22:00,28.0,19.0,-100.00,NW,310,29.0,37.0,69,-99.99,,,-99.99,,2013-01-31 00:22:00,
2013-01-30 18:32:00,28.0,19.0,-100.00,NW,310,29.0,37.0,69,-99.99,,,-99.99,,2013-01-31 00:32:00,
2013-01-30 18:42:00,27.0,18.0,-100.00,NW,305,27.0,34.0,69,-99.99,,,-99.99,,2013-01-31 00:42:00,
2013-01-30 18:53:00,28.0,18.0,-100.00,WNW,285,34.0,40.0,65,-99.99,,,-99.99,,2013-01-31 00:53:00,
2013-01-30 19:02:00,28.0,18.0,-100.00,WNW,285,34.0,40.0,65,-99.99,,,-99.99,,2013-01-31 01:02:00,
2013-01-30 19:12:00,27.0,17.0,-100.00,WNW,300,29.0,38.0,66,-99.99,,,-99.99,,2013-01-31 01:12:00,
2013-01-30 19:21:00,27.0,18.0,-100.00,WNW,295,33.0,40.0,68,-99.99,,,-99.99,,2013-01-31 01:21:00,
2013-01-30 19:32:00,27.0,18.0,-100.00,WNW,295,33.0,40.0,68,-99.99,,,-99.99,,2013-01-31 01:32:00,
2013-01-30 19:42:00,27.0,18.0,-100.00,WNW,295,33.0,40.0,68,-99.99,,,-99.99,,2013-01-31 01:42:00,
2013-01-30 19:52:00,27.0,18.0,-100.00,WNW,290,24.0,29.0,67,-99.99,,,-99.99,,2013-01-31 01:52:00,
2013-01-30 20:01:00,27.0,18.0,-100.00,WNW,290,24.0,29.0,67,-99.99,,,-99.99,,2013-01-31 02:01:00,
2013-01-30 20:12:00,27.0,17.0,-100.00,WNW,290,34.0,42.0,66,-99.99,,,-99.99,,2013-01-31 02:12:00,
2013-01-30 20:21:00,27.0,15.0,-100.00,WNW,300,33.0,39.0,61,-99.99,,,-99.99,,2013-01-31 02:21:00,
2013-01-30 20:32:00,27.0,15.0,-100.00,WNW,300,33.0,39.0,61,-99.99,,,-99.99,,2013-01-31 02:32:00,
2013-01-30 20:42:00,27.0,15.0,-100.00,WNW,300,33.0,39.0,61,-99.99,,,-99.99,,2013-01-31 02:42:00,
2013-01-30 21:03:00,27.0,16.0,-100.00,WNW,290,32.0,37.0,63,-99.99,,,-99.99,,2013-01-31 03:03:00,
2013-01-30 21:11:00,26.0,14.0,-100.00,WNW,300,34.0,44.0,61,-99.99,,,-99.99,,2013-01-31 03:11:00,
2013-01-30 21:21:00,27.0,16.0,-100.00,WNW,290,33.0,39.0,62,-99.99,,,-99.99,,2013-01-31 03:21:00,
2013-01-30 21:32:00,27.0,16.0,-100.00,WNW,290,33.0,39.0,62,-99.99,,,-99.99,,2013-01-31 03:32:00,
2013-01-30 21:42:00,26.0,14.0,-100.00,WNW,295,32.0,39.0,59,-99.99,,,-99.99,,2013-01-31 03:42:00,
2013-01-30 21:52:00,26.0,14.0,-100.00,WNW,295,32.0,39.0,59,-99.99,,,-99.99,,2013-01-31 03:52:00,
2013-01-30 22:02:00,26.0,14.0,-100.00,WNW,290,34.0,42.0,59,-99.99,,,-99.99,,2013-01-31 04:02:00,
2013-01-30 22:11:00,26.0,13.0,-100.00,WNW,295,33.0,44.0,56,-99.99,,,-99.99,,2013-01-31 04:11:00,
2013-01-30 22:22:00,26.0,13.0,-100.00,WNW,290,31.0,38.0,57,-99.99,,,-99.99,,2013-01-31 04:22:00,
2013-01-30 22:32:00,26.0,13.0,-100.00,WNW,290,31.0,38.0,57,-99.99,,,-99.99,,2013-01-31 04:32:00,
2013-01-30 22:41:00,26.0,13.0,-100.00,WNW,300,31.0,39.0,56,-99.99,,,-99.99,,2013-01-31 04:41:00,
2013-01-30 22:52:00,25.0,13.0,-100.00,West,280,29.0,34.0,61,-99.99,,,-99.99,,2013-01-31 04:52:00,
2013-01-30 23:03:00,25.0,13.0,-100.00,West,280,29.0,34.0,61,-99.99,,,-99.99,,2013-01-31 05:03:00,
2013-01-30 23:11:00,25.0,12.0,-100.00,WNW,290,33.0,40.0,57,-99.99,,,-99.99,,2013-01-31 05:11:00,
2013-01-30 23:22:00,25.0,12.0,-100.00,WNW,290,25.0,29.0,56,-99.99,,,-99.99,,2013-01-31 05:22:00,
2013-01-30 23:32:00,25.0,12.0,-100.00,WNW,290,25.0,29.0,56,-99.99,,,-99.99,,2013-01-31 05:32:00,
2013-01-30 23:42:00,25.0,12.0,-100.00,WNW,295,27.0,31.0,57,-99.99,,,-99.99,,2013-01-31 05:42:00,
2013-01-30 23:52:00,25.0,12.0,-100.00,WNW,295,27.0,31.0,57,-99.99,,,-99.99,,2013-01-31 05:52:00,